[[{"header":{"parameterUnit":"m.s-1","parameterCategory":1,"la1":30.2991,"la2":30.254,"lo1":-89.0895,"lo2":-89.0444,"dy":0.0017,"dx":0.0017,"nx":28,"ny":28,"refTime":"2026-01-10T03:00:00:Z","depth":0,"parameterNumber":2,"parameterNumberName":"U-component_of_WINDS"},"data":[0,0,0,0,0,0,0,0,0,0,0,0,0,0,0,0,0,0,0,0,0,0,0,0,0,0,0,0,0,0,0,0,0,0,0,0,0,0,0,0,0,0,0,0,0,0,0,0,0,0,0,0,0,0,0,0,0,0,1.8445,1.8445,0,1.8486,1.8487,1.8487,1.8496,1.8496,1.8496,1.8496,1.8538,1.8539,1.8541,0,0,0,0,0,0,0,0,0,0,0,0,0,1.8375,1.8377,1.8445,1.8446,1.8446,1.8486,1.8487,1.8487,1.8497,1.8496,1.8496,1.8495,1.8537,1.8539,1.8541,0,0,0,0,0,0,0,0,0,0,0,0,0,1.841,1.8377,1.8445,1.8455,1.8457,1.8486,1.8487,1.8488,1.8497,1.8496,1.8496,1.8495,1.8537,1.8539,1.8541,1.8563,0,0,1.8547,1.8548,0,0,0,0,0,0,0,0,1.8408,1.8413,1.8453,1.8455,1.8456,1.8486,1.8478,1.8513,1.8497,1.8481,1.8496,1.8495,1.8521,1.8524,1.8533,1.8565,1.8567,1.8548,1.8549,1.855,1.855,0,0,0,0,0,0,0,1.8406,1.8411,1.8461,1.8454,1.8456,1.8459,1.8463,1.8485,1.8503,1.8483,1.8484,1.8488,1.8522,1.8531,1.8534,1.8567,1.8548,1.8549,1.8551,1.8552,1.8622,1.8623,0,0,0,0,0,0,1.8401,1.8409,1.846,1.8463,1.8431,1.846,1.8465,1.8477,1.8503,1.8507,1.8489,1.8489,1.8528,1.8532,1.8536,1.8565,1.855,1.8552,1.8553,1.8622,1.8622,1.8623,0,0,0,0,0,0,1.84,1.8406,1.8458,1.8436,1.8443,1.8462,1.8475,1.8478,1.8487,1.8507,1.8511,1.8495,1.8527,1.8533,1.8557,1.8566,1.8553,1.8555,1.8621,1.8622,1.8623,1.8622,0,0,0,0,0,0,1.8398,1.8405,1.8413,1.8436,1.8444,1.8478,1.8475,1.8479,1.8491,1.8491,1.8514,1.8517,1.8528,1.8554,1.8559,1.8569,1.8556,1.862,1.8621,1.8622,1.8621,1.8622,1.8624,0,0,0,0,0,1.8395,1.8411,1.8413,1.842,1.8454,1.8479,1.8483,1.8494,1.8491,1.85,1.8514,1.8517,1.8564,1.8556,1.8562,1.8573,1.862,1.8621,1.8622,1.862,1.8622,1.8624,0,0,0,0,0,0,1.8387,1.8414,1.8417,1.844,1.8457,1.848,1.8491,1.8496,1.8514,1.8513,1.8527,1.8532,1.8556,1.8567,1.8557,1.8597,1.8592,1.8595,1.8588,1.859,1.8592,1.8588,1.8558,0,0,0,0,0,1.8388,1.8406,1.8428,1.8446,1.8455,1.8472,1.8482,1.849,1.8508,1.8515,1.853,1.8548,1.8567,1.8579,1.8598,1.8623,1.8629,1.8634,1.8635,1.8636,1.8638,1.8654,1.8657,1.8628,1.8628,1.8628,0,0,1.8391,1.8407,1.8417,1.8445,1.8459,1.8478,1.8477,1.8496,1.851,1.8518,1.8542,1.8554,1.8575,1.86,1.8612,1.861,1.8648,1.8638,1.8638,1.864,1.8656,1.8659,1.8661,1.8628,1.8628,1.8628,0,0,1.8404,1.8418,1.8435,1.845,1.8472,1.8483,1.8488,1.851,1.8519,1.8543,1.855,1.8568,1.86,1.8615,1.8627,1.8649,1.8653,1.8655,1.8662,1.8678,1.868,1.8682,1.8691,1.8694,1.8657,1.8657,1.8657,0,1.8404,1.8431,1.8444,1.8463,1.8476,1.8485,1.8504,1.8517,1.8544,1.8553,1.8551,1.8593,1.8608,1.8637,1.8643,1.8652,1.8659,1.8652,1.8679,1.8681,1.8683,1.8692,1.8695,1.8657,1.8657,1.8657,1.8657,0,1.8431,1.845,1.8462,1.8488,1.8502,1.8521,1.8538,1.8551,1.8558,1.857,1.8596,1.8614,1.8638,1.8646,1.8652,1.8677,1.8676,1.8676,1.8671,1.8686,1.8695,1.8698,1.8657,1.8657,1.8657,1.8657,0,0,1.8438,1.8473,1.8477,1.849,1.8516,1.8532,1.8552,1.8575,1.8587,1.8606,1.8624,1.8653,1.8654,1.8667,1.8676,1.869,1.8709,1.8689,1.869,1.8693,1.8739,1.8739,1.8743,1.8712,1.8713,1.8713,1.8738,0,1.8455,1.8491,1.8504,1.8534,1.8553,1.8563,1.8581,1.86,1.8612,1.8631,1.8645,1.8666,1.8665,1.8674,1.8688,1.8703,1.8718,1.8702,1.873,1.8731,1.8724,1.8747,1.8746,1.8769,1.8741,1.8742,1.8742,0,1.8479,1.8499,1.8531,1.8557,1.8565,1.8581,1.8605,1.8622,1.8644,1.8653,1.8669,1.8678,1.8701,1.8696,1.8729,1.8717,1.873,1.874,1.8741,1.8744,1.8737,1.8751,1.8776,1.878,1.8748,1.8747,1.8747,0,1.8483,1.8518,1.8542,1.8553,1.8583,1.8594,1.8607,1.8629,1.8643,1.8664,1.8674,1.8697,1.871,1.8729,1.8745,1.8739,1.8777,1.8772,1.8785,1.8785,1.8792,1.8792,1.882,1.88,1.88,1.88,1.88,0,1.85,1.852,1.8544,1.8559,1.8582,1.8598,1.862,1.8634,1.8654,1.8672,1.8683,1.87,1.872,1.874,1.8752,1.8779,1.8784,1.8793,1.8796,1.8792,1.8791,1.88,1.8799,1.8801,1.88,1.88,1.88,0,1.8508,1.8525,1.8552,1.8579,1.8587,1.8602,1.8626,1.8642,1.8656,1.868,1.8686,1.8708,1.8733,1.8751,1.8782,1.8791,1.882,1.8822,1.8812,1.8814,1.8826,1.8825,1.8862,1.8868,1.8843,1.8843,1.8844,0,1.8518,1.8533,1.8562,1.8576,1.8589,1.8611,1.8626,1.8643,1.8658,1.8686,1.8698,1.8724,1.8746,1.8785,1.8805,1.883,1.8834,1.8845,1.8837,1.8834,1.8835,1.8834,1.8837,1.8846,1.8846,1.8846,1.8846,0,1.8534,1.8542,1.8563,1.8588,1.8606,1.8626,1.8646,1.8657,1.8678,1.8695,1.8721,1.8738,1.8771,1.8797,1.8825,1.884,1.8847,1.8849,1.8853,1.8849,1.8843,1.8848,1.8816,1.8848,1.8847,1.8847,1.8847,1.8847,1.8544,1.8559,1.8582,1.8606,1.8624,1.8643,1.866,1.8677,1.8698,1.8727,1.8736,1.8763,1.8788,1.8826,1.8841,1.8864,1.8863,1.8869,1.8871,1.8872,1.8873,1.884,1.8869,1.8869,1.8869,1.8869,1.8869,0,1.8561,1.8578,1.8599,1.8628,1.8648,1.8653,1.8677,1.8693,1.8717,1.8739,1.876,1.8791,1.8818,1.884,1.8868,1.8881,1.8886,1.8888,1.8887,1.8891,1.8871,1.8865,1.8884,1.8884,1.8884,1.8884,1.8884,1.8884,1.8573,1.8599,1.8611,1.8646,1.8663,1.869,1.8703,1.8722,1.874,1.8774,1.8796,1.881,1.8833,1.8863,1.8888,1.8894,1.8904,1.8906,1.8913,1.8894,1.8892,1.889,1.8885,1.8908,1.8908,1.8931,1.8932,1.8932]},{"header":{"parameterUnit":"m.s-1","parameterCategory":1,"la1":30.2991,"la2":30.254,"lo1":-89.0895,"lo2":-89.0444,"dy":0.0017,"dx":0.0017,"nx":28,"ny":28,"refTime":"2026-01-10T03:00:00:Z","depth":0,"parameterNumber":3,"parameterNumberName":"V-component_of_WINDS"},"data":[0,0,0,0,0,0,0,0,0,0,0,0,0,0,0,0,0,0,0,0,0,0,0,0,0,0,0,0,0,0,0,0,0,0,0,0,0,0,0,0,0,0,0,0,0,0,0,0,0,0,0,0,0,0,0,0,0,0,-6.5009,-6.501,0,-6.5106,-6.5108,-6.5109,-6.5074,-6.5071,-6.5069,-6.5067,-6.5162,-6.5166,-6.5171,0,0,0,0,0,0,0,0,0,0,0,0,0,-6.4788,-6.4792,-6.5009,-6.501,-6.5011,-6.5106,-6.5108,-6.5109,-6.5074,-6.5071,-6.5069,-6.5066,-6.516,-6.5166,-6.5171,0,0,0,0,0,0,0,0,0,0,0,0,0,-6.4885,-6.4794,-6.5009,-6.5006,-6.5006,-6.5106,-6.5108,-6.5109,-6.5075,-6.5071,-6.5068,-6.5065,-6.5159,-6.5165,-6.5172,-6.5279,0,0,-6.5193,-6.5196,0,0,0,0,0,0,0,0,-6.4879,-6.4893,-6.5005,-6.5006,-6.5007,-6.5075,-6.5064,-6.5166,-6.5075,-6.5048,-6.5067,-6.5063,-6.5135,-6.5144,-6.5169,-6.5284,-6.5288,-6.5193,-6.5198,-6.52,-6.5202,0,0,0,0,0,0,0,-6.4872,-6.4888,-6.5047,-6.5006,-6.5008,-6.4998,-6.5008,-6.5083,-6.5109,-6.5051,-6.5048,-6.5061,-6.5135,-6.5162,-6.5171,-6.5289,-6.5193,-6.5199,-6.5203,-6.5206,-6.5496,-6.55,0,0,0,0,0,0,-6.4866,-6.4883,-6.5044,-6.505,-6.4934,-6.5004,-6.5016,-6.5056,-6.5108,-6.5113,-6.5063,-6.5059,-6.5152,-6.5163,-6.5174,-6.5303,-6.52,-6.5207,-6.5211,-6.5493,-6.5497,-6.5501,0,0,0,0,0,0,-6.4861,-6.4881,-6.504,-6.4966,-6.4986,-6.5012,-6.5057,-6.506,-6.5087,-6.5118,-6.5121,-6.5087,-6.515,-6.5164,-6.5254,-6.5306,-6.521,-6.5216,-6.5489,-6.5494,-6.5499,-6.5562,0,0,0,0,0,0,-6.4855,-6.4879,-6.4921,-6.4967,-6.499,-6.512,-6.5061,-6.5064,-6.51,-6.5094,-6.5141,-6.5145,-6.5149,-6.5244,-6.526,-6.5314,-6.5221,-6.5484,-6.5491,-6.5497,-6.5555,-6.5569,-6.5581,0,0,0,0,0,-6.4847,-6.4934,-6.4924,-6.4943,-6.5043,-6.5123,-6.5136,-6.5139,-6.5104,-6.5146,-6.5165,-6.5144,-6.5298,-6.5253,-6.5272,-6.5328,-6.5481,-6.5489,-6.5497,-6.555,-6.5566,-6.558,0,0,0,0,0,0,-6.4891,-6.494,-6.4929,-6.5033,-6.5075,-6.5117,-6.517,-6.5157,-6.5208,-6.52,-6.5201,-6.5212,-6.5304,-6.5325,-6.5274,-6.5434,-6.5384,-6.5396,-6.5417,-6.5433,-6.5446,-6.5439,-6.5227,0,0,0,0,0,-6.4913,-6.4976,-6.5014,-6.5102,-6.5124,-6.5144,-6.5178,-6.5178,-6.522,-6.5237,-6.5263,-6.5303,-6.536,-6.5398,-6.5452,-6.5558,-6.5567,-6.5606,-6.5618,-6.5629,-6.5639,-6.5696,-6.5714,-6.5528,-6.5528,-6.5528,0,0,-6.4959,-6.4993,-6.5032,-6.5112,-6.5144,-6.5207,-6.5158,-6.5227,-6.5274,-6.5246,-6.5333,-6.5353,-6.5398,-6.5497,-6.5541,-6.5516,-6.5693,-6.5639,-6.5647,-6.5652,-6.5707,-6.5724,-6.574,-6.5533,-6.5532,-6.5532,0,0,-6.5075,-6.5107,-6.5185,-6.5218,-6.5268,-6.5281,-6.5299,-6.5344,-6.5357,-6.5445,-6.5426,-6.548,-6.5579,-6.5612,-6.5642,-6.5771,-6.5753,-6.5788,-6.5854,-6.591,-6.5925,-6.5937,-6.5983,-6.6,-6.5799,-6.5799,-6.5799,0,-6.5125,-6.5221,-6.5226,-6.5297,-6.5332,-6.5313,-6.5391,-6.5422,-6.5486,-6.551,-6.5482,-6.5607,-6.5635,-6.5741,-6.5773,-6.5798,-6.5818,-6.5783,-6.5922,-6.5935,-6.5948,-6.5991,-6.6009,-6.5803,-6.5802,-6.5802,-6.5802,0,-6.528,-6.5347,-6.5404,-6.5469,-6.551,-6.5584,-6.5599,-6.564,-6.5636,-6.5651,-6.574,-6.5774,-6.5835,-6.586,-6.5856,-6.5965,-6.5949,-6.5922,-6.5871,-6.5969,-6.601,-6.6027,-6.5809,-6.5807,-6.5806,-6.5805,0,0,-6.5426,-6.5493,-6.5514,-6.5543,-6.5597,-6.5648,-6.5721,-6.5783,-6.5818,-6.5863,-6.5923,-6.6008,-6.5984,-6.6017,-6.6017,-6.6066,-6.6166,-6.6033,-6.6034,-6.6056,-6.6288,-6.6308,-6.6327,-6.6155,-6.6158,-6.616,-6.6284,0,-6.5546,-6.5676,-6.5683,-6.58,-6.5862,-6.5844,-6.5907,-6.5946,-6.5963,-6.6016,-6.6033,-6.6093,-6.6056,-6.6077,-6.6125,-6.6144,-6.6213,-6.6135,-6.6209,-6.6212,-6.6199,-6.6349,-6.637,-6.6485,-6.63,-6.6303,-6.6305,0,-6.5703,-6.5756,-6.588,-6.5926,-6.5952,-6.6009,-6.6066,-6.6118,-6.6161,-6.6169,-6.6208,-6.6201,-6.6273,-6.6221,-6.6321,-6.6268,-6.6298,-6.6312,-6.6317,-6.6324,-6.6264,-6.6359,-6.6522,-6.6539,-6.633,-6.6328,-6.6326,0,-6.5797,-6.5898,-6.5986,-6.6012,-6.6067,-6.6108,-6.6132,-6.6173,-6.621,-6.6259,-6.6283,-6.6339,-6.637,-6.6413,-6.6421,-6.6382,-6.6521,-6.6469,-6.6529,-6.6528,-6.6558,-6.6556,-6.6728,-6.6579,-6.6578,-6.6578,-6.6578,0,-6.5931,-6.6008,-6.6029,-6.6083,-6.6168,-6.6174,-6.6258,-6.6279,-6.6315,-6.6372,-6.6359,-6.6412,-6.6419,-6.6473,-6.648,-6.6561,-6.6575,-6.6583,-6.6583,-6.6584,-6.6583,-6.6604,-6.6596,-6.6583,-6.6582,-6.6581,-6.658,0,-6.605,-6.6068,-6.6162,-6.6208,-6.6221,-6.6282,-6.6319,-6.637,-6.6385,-6.6457,-6.6474,-6.6497,-6.656,-6.6572,-6.6646,-6.665,-6.6748,-6.674,-6.6734,-6.6733,-6.6792,-6.6786,-6.6983,-6.7009,-6.6843,-6.6844,-6.6846,0,-6.6134,-6.6193,-6.6246,-6.6284,-6.6311,-6.6372,-6.641,-6.6418,-6.6458,-6.6512,-6.6556,-6.6619,-6.6669,-6.6771,-6.6793,-6.6849,-6.6843,-6.6908,-6.6851,-6.685,-6.6843,-6.684,-6.6845,-6.6919,-6.692,-6.6922,-6.6923,0,-6.6282,-6.6288,-6.6344,-6.6405,-6.6451,-6.6498,-6.6542,-6.6574,-6.6587,-6.6632,-6.6698,-6.6737,-6.6814,-6.6875,-6.6932,-6.6955,-6.6941,-6.6941,-6.6958,-6.6959,-6.6952,-6.6956,-6.6763,-6.6936,-6.6935,-6.6934,-6.6933,-6.6933,-6.6386,-6.6438,-6.6483,-6.6546,-6.6581,-6.6623,-6.6674,-6.6696,-6.6751,-6.6816,-6.6816,-6.6888,-6.6929,-6.7004,-6.7031,-6.7086,-6.7065,-6.7089,-6.7095,-6.7101,-6.7107,-6.6944,-6.7096,-6.7096,-6.7095,-6.7095,-6.7095,0,-6.6533,-6.6561,-6.662,-6.6683,-6.6733,-6.6718,-6.6766,-6.6808,-6.6872,-6.6913,-6.6963,-6.7038,-6.7098,-6.7126,-6.7184,-6.7223,-6.7218,-6.7238,-6.7235,-6.724,-6.7122,-6.7102,-6.7241,-6.7241,-6.7241,-6.7241,-6.7241,-6.7241,-6.6615,-6.6702,-6.6713,-6.6817,-6.6844,-6.6916,-6.6945,-6.6983,-6.7016,-6.7101,-6.7152,-6.717,-6.7205,-6.7266,-6.732,-6.7326,-6.7348,-6.7371,-6.7374,-6.7263,-6.7248,-6.7234,-6.7215,-6.7375,-6.7376,-6.7487,-6.7488,-6.7489]}]]